Regional Weather Roundup
Issued by NWS

Home | Current Version | Previous Version | Text Only | Print | Product List | Glossary Off
Versions: 1 2 3 4 5 6 7 8 9 10 11 12 13 14 15 16 17 18 19 20 21 22 23 24 25 26 27 28 29 30 31 32 33 34 35 36 37 38 39 40 41 42 43 44 45 46 47 48 49 50

000
ASUS44 KMEG 261000
RWRTN
TENNESSEE HOURLY STATE WEATHER ROUNDUP
NATIONAL WEATHER SERVICE MEMPHIS TN
500 AM CDT SAT MAY 26 2018

TNZ002-004-019-021-049-052-054-088>092-261100-
WEST TENNESSEE

CITY           SKY/WX    TMP DP  RH WIND       PRES   REMARKS
MEMPHIS INTL   MOCLDY    72  71  97 S7        29.86R
NWS MEMPHIS      N/A     69 N/A N/A MISG        N/A
JACKSON        CLOUDY    69  68  96 CALM      29.88R
DYERSBURG      MOCLDY    69  68  96 S5        29.87S
$$

TNZ008-025-027-028-033-062-065-066-261100-
NORTH MIDDLE TENNESSEE

CITY           SKY/WX    TMP DP  RH WIND       PRES   REMARKS
NASHVILLE      FAIR      67  65  93 S3        29.91R
CLARKSVILLE    FAIR      68  65  90 SW3       29.89R
SMYRNA         FAIR      68  66  93 S3        29.91S
CROSSVILLE     MOCLDY    66  64  93 CALM      29.97S
$$

TNZ061-075-076-078-094-096-097-261100-
SOUTH MIDDLE TENNESSEE

CITY           SKY/WX    TMP DP  RH WIND       PRES   REMARKS
$$

TNZ017-018-042-046-047-261100-
NORTHEAST TENNESSEE

CITY           SKY/WX    TMP DP  RH WIND       PRES   REMARKS
TRI CITIES     CLOUDY    67  65  93 CALM      29.97R THUNDER
$$

TNZ012-013-036-069-073-074-261100-
CENTRAL EAST TENNESSEE

CITY           SKY/WX    TMP DP  RH WIND       PRES   REMARKS
KNOXVILLE      CLOUDY    71  68  90 W3        29.93R
OAK RIDGE      CLOUDY    71  71 100 CALM      29.94S
$$

TNZ083-085-099-261100-
SOUTHEAST TENNESSEE

CITY           SKY/WX    TMP DP  RH WIND       PRES   REMARKS
CHATTANOOGA    MOCLDY    70  66  87 S3        29.93S
$$

SKY/WX REPORTED AS FAIR MEANS FEW OR NO CLOUDS BELOW
12 THOUSAND FEET.





USA.gov is the U.S. government's official web portal to all federal, state and local government web resources and services.